Weather in Rouen

France     49°26′29″N   1°05′06″E
temp.,
°C
wind,
m/s
gust,
m/s
humid.,
%
clouds,
%
prec.,
mm/h
press.,
hPa
HPBL,
m
16 may, sun
sun1623:00+7sw37954 0.1 1004130
02:00+6ssw3109711 0.2 1004218
05:00+6ssw399929 0.1 1003216
08:00+8ssw4109638 0.1 1003446
11:00+13wsw69691 0.2 10021303
14:00+15wsw7106045 0.8 10021939
17:00+10wsw51193100 2.2 1002753
20:00+11wsw7138958 3.4 10011029
17 may, mon
mon1723:00+9sw7149473 0.2 1002810
02:00+9wsw81490100 0.3 10031050
05:00+9wsw71491100 0.1 1004847
08:00+9wsw71292100 0.3 1006890
11:00+10wsw61093100 0.5 1007990
14:00+13w8118396 1.5 10081259
17:00+15w912695 1.3 10091599
20:00+12w712820 1.6 1010983
18 may, tue
tue1823:00+9wsw6139449 0.0 1012548
02:00+9wsw6129496 0.1 1013575
05:00+9w6119196 0.0 1014631
08:00+9w598947 0.0 1016633
11:00+12w787682 0.4 10171242
14:00+12wnw797899 1.9 10181460
17:00+14wnw710595 0.3 10191504
20:00+12w59785 0.4 1020904
19 may, wed
wed1923:00+7wsw22926 0.0 102124
02:00+6sw389498 0.0 1021144
05:00+7sw399799 0.0 1020217
08:00+9wsw489366 0.0 1021309
11:00+13w567326 0.1 10211149
14:00+15w566867 1.6 10201596
17:00+15wnw56625 1.1 10201505
20:00+12wnw510745 1.3 1021959
20 may, thu
thu2023:00+7w3109584 0.0 1022218
02:00+7w3996100 0.0 1022216
05:00+6w359669 0.0 102393
08:00+8w269323 0.0 1024218
11:00+13wsw446780 0.0 10241255
14:00+15wsw455699 0.1 10241742
17:00+17sw4552100 0.0 10222026
20:00+14sw3675100 0.1 1021348